CZ-2C DEB, 40288

Orbit data source: Space-Track

CZ-2C DEB, 40288 is space debris in SSO originally from a launch on Mon, 27 Oct 2014 UTC launched from the Jiuquan Satellite Launch Center, China (JSC). Debris objects in space refer to the collection of defunct objects orbiting the Earth. Examples of debris include non-operational satellites, rocket bodies, and fragments generated from explosions, collisions, or faulty payload assembly.

Loading next visibility...
Identifier
40288, 2014-066C
Orbit
SSO
Country
Flag of CNCN / PRC
Related business
Manufacturer
CALT
Mission
Spacecraft
Bus & Motor
Unknown
Mass
1 kg wet, 1 kg dry
Launch date (UTC)
2014-10-27 (11 years ago)
Launch vehicle
Unknown
Launch site
Jiuquan Satellite Launch Center, China (JSC)
Object type
Payload
Rocket body
Debris
Shape & HBR
Cone, 0.1 m
Radar Cross Section
0.025 m², Small (<0.1 m²)

Expand to show TLE details & history
Last TLE update: 15 hours ago

TLE from 15 hours ago
0 CZ-2C DEB
1 40288U 14066C   25348.31536208  .00002365  00000-0  79071-3 0  9992
2 40288  97.9495 118.7804 0159810  37.8424 323.3870 14.31264628577785
Epoch: 2025-12-14T07:34Z
TLE epoch observation values (Epoch: 2025-12-14T07:34:07.283Z)
Latitude
0.00004°
Longitude
-77.97999°
Altitude
699.187 km
Speed
7.554 km/s
True Right ascension
07h 55m 07s
True Declination
0° 00' 00"
Sunlit
Object was in full shadow at epoch
Visualization orbit readout
Latitude
Unknown
Longitude
Unknown
Altitude
Unknown
Speed
Unknown
Apparent Right ascension
Unknown
Apparent Declination
Unknown
Sunlit
N/A
Visualization observer readout
Local Sidereal Time
21:13:41
Azimuth
Unknown
Elevation
Unknown
Doppler factor
Unknown
Orbital elements
Apogee altitude
899.082 km
Perigee altitude
670.146 km
Semi-major axis
7,162.751 km
Eccentricity
0.01598
Inclination
97.9495°
RAAN
118.7804°
Arg. of periapsis
37.8424°
True anomaly
322.27709°
Mean anomaly
323.387°
Eccentric anomaly
322.83383°
Mean motion
3.58033 °/min
Orbital period
100.55 mins
BSTAR
0.00079071
Loading maneuver chart data...
Computing Atmospheric mass density...
Loading historical data...
Loading historical data...
Loading historical data...
Loading historical data...
Loading historical data...
Loading historical data...
Loading historical data...
Other satellites on launch #66 in the year 2014 (2014-10-27 UTC)

Documentation

Showing up to 5 results
|